User: anonymous   Login
Location: Unspecified
(0.0000°N, 0.0000°E)
Time: 09:33:09
(UTC+00:00)
Language:

Kiku 2 - Orbit

View from above orbital plane
View from above orbital plane
View from above satellite
View from above satellite

Ground track
Ground track

The orbit data is extracted from the following two-line orbital elements,

1  9852U 77014A   17295.38868253 +.00000082 +00000-0 +00000-0 0  9990
2  9852 012.3483 320.1970 0005251 283.3879 125.9115 01.00014311095629
Epoch (UTC): 22 October 2017 09:19:42
Eccentricity: 0.0005251
inclination: 12.3483°
perigee height: 35836 km
apogee height: 35881 km
right ascension of ascending node: 320.1970°
argument of perigee: 283.3879°
revolutions per day: 1.00014311
mean anomaly at epoch: 125.9115°
orbit number at epoch: 9562

The dashed part of the orbit path shows where the satellite is in the earth's shadow,  

DLR